User: anonymous   Login
Location: Christianberg
(48.9086°N, 14.0209°E)
Time: 00:56:46
(UTC+00:00)
Language:

SL-4 R/B - Orbit

View from above orbital plane
View from above orbital plane
View from above satellite
View from above satellite

Ground track
Ground track

The orbit data is extracted from the following two-line orbital elements,

1 39679U 14021B   21267.72538683  .00001527  00000-0  89941-4 0  9992
2 39679  51.6146 111.7491 0170104 115.4277 246.4406 15.07166595409029
Epoch (UTC): 24 September 2021 17:24:33
Eccentricity: 0.0170104
inclination: 51.6146°
perigee height: 427 km
apogee height: 662 km
right ascension of ascending node: 111.7491°
argument of perigee: 115.4277°
revolutions per day: 15.07166595
mean anomaly at epoch: 246.4406°
orbit number at epoch: 40902

The dashed part of the orbit path shows where the satellite is in the earth's shadow,  

DLR